Regional Weather Roundup
Issued by NWS Jackson, KY

Home | Current Version | Previous Version | Text Only | Print | Product List | Glossary On
Versions: 1 2 3 4 5 6 7 8 9 10 11 12 13 14 15 16 17 18 19 20 21 22 23 24 25 26 27
000
ASUS43 KJKL 291710
RWRJKL

EAST KENTUCKY HOURLY WEATHER ROUNDUP
NATIONAL WEATHER SERVICE JACKSON KY
100 PM EDT THU SEP 29 2016

NOTE: "FAIR" INDICATES FEW OR NO CLOUDS BELOW 12,000 FEET WITH
NO SIGNIFICANT WEATHER AND/OR OBSTRUCTIONS TO VISIBILITY.

* THESE REPORTS ARE NOT UNDER NWS QUALITY CONTROL AND MAY NOT
  REPORT WEATHER SUCH AS PRECIPITATION AND FOG.

KYZ079-080-083-085-087-088-110-112-115-119-120-291800
...EASTERN KENTUCKY...

CITY           SKY/WX    TMP DP  RH WIND       PRES   REMARKS
JACKSON        CLOUDY    55  53  93 CALM      30.06S
LONDON         CLOUDY    61  49  64 VRB3      30.07S
SOMERSET*      CLOUDY    59  46  63 N3        30.08S
MONTICELLO*    CLOUDY    63  50  62 W13       30.09S
WILLIAMSBURG*  CLOUDY    57  50  77 NW3       30.08R
MIDDLESBORO*   CLOUDY    61  51  70 NE7       30.06F
HARLAN APT*    CLOUDY    57  52  82 NW3       30.06S
PIKE CO APT*   CLOUDY    59  58  97 N3        30.04S
MOREHEAD APT*  PTSUNNY   55  52  88 N5        30.09S
ASHLAND*       CLOUDY    61  57  88 NW5       30.04S
$$

KYZ035-036-041-042-044-050-067-078-099-291800
...CENTRAL KENTUCKY...

CITY           SKY/WX    TMP DP  RH WIND       PRES   REMARKS
MT STERLING*   CLOUDY   N/A N/A N/A E6        30.08S
FLEMING/MASON* CLOUDY    56  52  87 CALM      30.09S
DANVILLE*      PTSUNNY   61  48  63 NW7       30.08R
LEXINGTON      PTSUNNY   62  50  64 CALM      30.06S
FRANKFORT      CLOUDY    62  51  67 CALM      30.06S
LOUISVILLE     PTSUNNY   61  53  75 W7        30.07F
LEBANON*         N/A     63  50  63 W3        30.07F
GLASGOW*       CLOUDY    59  50  70 W7        30.09S
BOWLING GREEN  CLOUDY    60  51  72 CALM      30.10S
$$

KYZ091>093-OHZ055-061-077-WVZ005-015-034-035-042-291800
...SOUTHERN OHIO/WEST VIRGINIA...

CITY           SKY/WX    TMP DP  RH WIND       PRES   REMARKS
COVINGTON      CLOUDY    59  52  77 NE6       30.08R
COLUMBUS       PTSUNNY   67  56  67 E5        30.06F
DAYTON         PTSUNNY   62  52  69 NE9       30.09S
WILMINGTON     CLOUDY    58  54  86 E5        30.09R
HUNTINGTON     CLOUDY    61  57  87 NW8       30.03S
CHARLESTON     CLOUDY    62  58  86 CALM      30.03R
PINEVILLE*     MOSUNNY   71  59  66 MISG      30.05F
BECKLEY        PTSUNNY   70  54  56 SE21G32   30.05R
BLUEFIELD      MOSUNNY   66  55  67 SE10G21   30.05F
LOGAN CO APT*  FOG       59  59 100 CALM      30.02F VSB 1/4
$$

VAZ002-007-008-TNZ017-027-036-066-071-291800
...SOUTHWEST VIRGINIA/EAST TENNESSEE...

CITY           SKY/WX    TMP DP  RH WIND       PRES   REMARKS
WISE*          CLOUDY    59  46  63 NW5       30.06S
JONESVILLE*    CLOUDY    63  54  72 NW3       30.06S
ABINGDON*      PTSUNNY   72  60  65 W3        30.00S
BRISTOL        PTSUNNY   68  54  60 W9        30.01S
MORRISTOWN*    CLOUDY    64  54  68 VRB3      30.02F
SEVIERVILLE*   CLOUDY    63  54  72 W6        30.03S
KNOXVILLE      PTSUNNY   68  54  60 VRB3        N/A
OAK RIDGE      CLOUDY    67  51  56 VRB3      30.05S
CROSSVILLE     CLOUDY    59  45  59 NW8       30.08S
NASHVILLE      PTSUNNY   66  50  56 N5        30.10S
$$

...KEY TO REMARKS...
VSB - VISIBILITY IN MILES
WCI - WIND CHILL INDEX
HX  - HEAT INDEX

$$




USA.gov is the U.S. government's official web portal to all federal, state and local government web resources and services.